Printer-friendly version

IAU Minor Planet Center

Minor Planet Center

MPEC 2006-B46 : 2006 BV7

The following Minor Planet Electronic Circular may be linked-to from your own Web pages, but must not otherwise be redistributed electronically.


Read MPEC 2006-B45 Read MPEC 2006-B47


M.P.E.C. 2006-B46                                Issued 2006 Jan. 24, 12:47 UT

     The Minor Planet Electronic Circulars contain information on unusual
         minor planets and routine data on comets.  They are published
   on behalf of Commission 20 of the International Astronomical Union by the
          Minor Planet Center, Smithsonian Astrophysical Observatory,
                          Cambridge, MA 02138, U.S.A.

                  Supported in part by the Brinson Foundation
                  Supported in part by the TABASGO Foundation
             Prepared using the Tamkin Foundation Computer Network

                              MPC@CFA.HARVARD.EDU
          URL http://cfa-www.harvard.edu/iau/mpc.html  ISSN 1523-6714

                                   2006 BV7

Observations:
     K06B07V* C2006 01 22.38970 10 47 08.27 +06 30 06.3          21.3 V EB046691
     K06B07V  C2006 01 22.40698 10 47 07.97 +06 31 15.5          20.8 V EB046691
     K06B07V  C2006 01 22.42426 10 47 07.64 +06 32 26.0          21.0 V EB046691
     K06B07V tC2006 01 22.50938 10 47 06.03 +06 38 06.3                 EB046291
     K06B07V tC2006 01 22.51317 10 47 05.93 +06 38 22.4                 EB046291
     K06B07V tC2006 01 22.52224 10 47 05.74 +06 38 59.8                 EB046291
     K06B07V  C2006 01 23.33401 10 46 52.73 +07 33 55.6          21.5 V EB046291
     K06B07V  C2006 01 23.33810 10 46 52.64 +07 34 13.3          21.4 V EB046291
     K06B07V  C2006 01 23.34193 10 46 52.56 +07 34 27.5          21.3 V EB046291
     K06B07V  C2006 01 23.49423 10 46 49.18 +07 44 52.4          20.9 V EB046G96
     K06B07V  C2006 01 23.50321 10 46 49.00 +07 45 29.7          20.6 V EB046G96
     K06B07V  C2006 01 23.51221 10 46 48.79 +07 46 06.2          21.4 V EB046G96
     K06B07V  C2006 01 23.52126 10 46 48.54 +07 46 44.2          21.5 V EB046G96

Observer details:
291 LPL/Spacewatch II.  Observers T. H. Bressi, M. Block.  1.8-m f/2.7
    reflector + CCD.
691 Steward Observatory, Kitt Peak.  Observers M. Block, T. H. Bressi,
    A. F. Tubbiolo.  0.9-m f/3 reflector + CCD.
G96 Mt. Lemmon Survey.  Observer E. C. Beshore.  Measurers E. C. Beshore,
    E. J. Christensen, G. J. Garradd, A. D. Grauer, R. E. Hill, R. A. Kowalski,
    S. M. Larson, R. H. McNaught.  1.5-m reflector + CCD.

Orbital elements:
2006 BV7
Epoch 2006 Mar. 6.0 TT = JDT 2453800.5                  MPC
M  10.40207              (2000.0)            P               Q
n   0.15709153     Peri.  346.15948     -0.66296286     -0.49209421
a   3.4017380      Node   139.59068     +0.74259738     -0.52789958
e   0.5105644      Incl.   60.49982     +0.09502309     +0.69221768
P   6.27           H   19.5           G   0.15           U   9
Residuals in seconds of arc
060122 691  0.6-  0.1-    060122 291  0.1-  0.7+    060123 G96  0.3+  0.1+
060122 691  0.1-  0.3-    060123 291  0.1+  0.0     060123 G96  0.1+  0.4-
060122 691  0.0   0.8+    060123 291  0.0   0.9+    060123 G96  0.6-  0.5+
060122 291  0.6+  1.0-    060123 291  0.1+  0.6-
060122 291  0.2+  0.2-    060123 G96  0.1+  0.4-

Ephemeris:
2006 BV7                 a,e,i = 3.40, 0.51, 60                  q = 1.6649
Date    TT    R. A. (2000) Decl.     Delta      r     Elong.  Phase     V
2006 01 25    10 46.31   +09 29.5    0.778    1.683   145.3    19.4    21.1
2006 02 04    10 40.10   +21 59.5    0.746    1.700   157.9    12.6    20.8
2006 02 14    10 29.36   +34 28.3    0.769    1.722   156.8    13.0    20.9
2006 02 24    10 15.35   +44 48.5    0.844    1.748   144.7    19.1    21.3
2006 03 06    10 00.69   +52 09.2    0.956    1.778   131.8    24.6    21.8

Timothy B. Spahr             (C) Copyright 2006 MPC           M.P.E.C. 2006-B46

Read MPEC 2006-B45 Read MPEC 2006-B47


Our Web policy. Index to the CBAT/MPC/ICQ pages.


Valid HTML 4.01!